Tracking 19796 objects as of 19-Jul-2019
HD Live streaming from Space Station
objects crossing your sky now

COSMOS 1275 DEB

Track COSMOS 1275 DEB now!
10-day predictions


NORAD ID: 13021
Int'l Code: 1981-053ET
Perigee: 885.9 km
Apogee: 922.4 km
Inclination: 83.1 °
Period: 102.9 minutes
Semi major axis: 7275 km
RCS: 0.0839 m2 (small)
Launch date: June 4, 1981
Source: Commonwealth of Independent States (former USSR) (CIS)
Launch site: PLESETSK MISSILE AND SPACE COMPLEX (PKMTR)

Note: This is SATELLITE DEBRIS
aabbcc
Your satellite tracking list
Your tracking list is empty




NASA's NSSDC Master Catalog

Two Line Element Set (TLE):
1 13021U 81053ET  19199.94836265 +.00000252 +00000-0 +16223-3 0  9992
2 13021 083.1474 027.9154 0025115 036.4229 130.9450 13.99071412905984
Source of the keplerian elements: AFSPC